• MPC Preparation (Info)

  • MPEC 2019-U34 : 2019 UK

    The following Minor Planet Electronic Circular may be linked-to from your own Web pages, but must not otherwise be redistributed electronically.

    A form allowing access to any MPEC is at the bottom of this page.


    Read MPEC 2019-U33 Read MPEC 2019-U35


    M.P.E.C. 2019-U34                              Issued 2019 October 20, 03:56 UT
    
         The Minor Planet Electronic Circulars contain information on unusual
             minor planets and routine data on comets.  They are published
        on behalf of Division F of the International Astronomical Union by the
              Minor Planet Center, Smithsonian Astrophysical Observatory,
                              Cambridge, MA 02138, U.S.A.
    
                 Prepared using the Tamkin Foundation Computer Network
    
                                  MPC@CFA.HARVARD.EDU
                URL https://www.minorplanetcenter.net/    ISSN 1523-6714
    
                                     2019 UK                                 
    
    
    Observations:
         K19U00K  C2019 10 13.33762321 21 24.028+15 10 12.81         20.2 GVEU034F52
         K19U00K  C2019 10 13.34982721 21 23.084+15 09 04.83         20.7 GVEU034F52
         K19U00K  C2019 10 13.36201721 21 22.141+15 07 57.43         21.9 GVEU034F52
         K19U00K  C2019 10 17.30811221 17 57.161+09 10 33.83         21.3 GVEU034F51
         K19U00K  C2019 10 17.34475221 17 55.225+09 07 18.72         20.5 GVEU034F51
         K19U00K* C2019 10 19.25957221 16 48.167+06 19 32.00         20.92wUEU034F51
         K19U00K  C2019 10 19.27165721 16 47.638+06 18 29.25         20.59wUEU034F51
         K19U00K  C2019 10 19.28371621 16 47.117+06 17 26.71         20.52wUEU034F51
         K19U00K  C2019 10 19.29580321 16 46.598+06 16 23.99         20.53wUEU034F51
         K19U00K IC2019 10 19.74985821 16 34.16 +05 37 06.3          20.5 GVEU034L01
         K19U00K IC2019 10 19.75262421 16 34.07 +05 36 52.3          20.4 GVEU034L01
         K19U00K KC2019 10 19.75420221 16 34.04 +05 36 43.7          20.4 GVEU034L01
         K19U00K KC2019 10 19.76215721 16 33.72 +05 36 02.9          20.3 GVEU034L01
    
    Observer details:
    F51 Pan-STARRS 1, Haleakala.  Observers J. Bulger, K. Chambers, T. Lowe, E. 
       Magnier, A. Schultz, M. Willman.  Measurers S. Chastel, M. Huber, Y. 
       Ramanjooloo, R. Wainscoat, R. Weryk, K. Chambers, T. de Boer, L. Denneau, J. 
       Fairlamb, H. Flewelling, C.-C. Lin, E. Magnier.  1.8-m Ritchey-Chretien + 
       CCD.
    F52 Pan-STARRS 2, Haleakala.  Observers J. Bulger, K. Chambers, T. Dukes, T. 
       Lowe, E. Magnier, A. Schultz, M. Willman.  Measurers S. Chastel, M. Huber, 
       Y. Ramanjooloo, R. Wainscoat, R. Weryk.  1.8-m Ritchey-Chretien + CCD.
    L01 Visnjan Observatory, Tican.  Observer K. Korlevic.  1.0-m f/2.9 reflector + 
       CCD.
    
    Orbital elements:
    2019 UK                                             PHA, Earth MOID = 0.0449 AU
    Epoch 2019 Apr. 27.0 TT = JDT 2458600.5                 Veres
    M  27.49027              (2000.0)            P               Q
    n   1.18843791     Peri.  318.86690     -0.94620595     -0.27847659
    a   0.8827107      Node   206.38199     +0.29209030     -0.95420186
    e   0.3847255      Incl.   21.76377     -0.13920329     -0.10931426
    P   0.83           H   21.5           G   0.15           U   8
    Residuals in seconds of arc
    191013 F52  0.2+  0.2+    191019 F51  0.0   0.0     191019 L01  0.3-  0.2+
    191013 F52  0.0   0.2-    191019 F51  0.0   0.0     191019 L01  0.2+  0.3-
    191013 F52  0.3-  0.0     191019 F51  0.0   0.0     191019 L01  0.1-  0.1-
    191017 F51  0.0   0.3-    191019 F51  0.1+  0.0
    191017 F51  0.1-  0.3+    191019 L01  0.5-  0.0
    
    Ephemeris:
    2019 UK                  a,e,i = 0.88, 0.38, 22                  q = 0.5431
    Date    TT    R. A. (2000) Decl.     Delta      r    Elong.  Phase     V
    2019 09 20    22 18 26.4 +46 20 59   0.2953  1.2104   128.4    40.6    20.9
    ...
    2019 10 05    21 34 11.4 +27 54 59   0.2572  1.1815   129.8    40.6    20.5
    ...
    2019 10 13    21 21 47.0 +15 41 26   0.2557  1.1590   123.5    45.9    20.6
    ...
    2019 10 19    21 16 56.5 +06 42 13   0.2630  1.1389   116.7    51.4    20.8
    2019 10 20    21 16 27.1 +05 16 07   0.2648  1.1353   115.5    52.4    20.8
    2019 10 21    21 16 02.8 +03 51 24   0.2668  1.1316   114.2    53.4    20.9
    ...
    2019 10 27    21 15 11.2 -04 04 11   0.2814  1.1078   106.6    59.3    21.1
    ...
    2019 11 04    21 17 27.9 -13 04 49   0.3058  1.0717    96.7    66.8    21.4
    ...
    2019 11 19    21 27 25.1 -25 58 54   0.3547  0.9908    80.1    79.3    22.0
    
    A. U. Tomatic                (C) Copyright 2019 MPC           M.P.E.C. 2019-U34
    


    Read MPEC 2019-U33 Read MPEC 2019-U35


    MPEC number:

    Enter an MPEC number in one of the following forms:

    • 1997-B01 (the full form)
    • J97B01 (the packed version of the full form)
    • B01 (the abbreviated form)